DW8453 Bekkjarvik NO current weather conditions

sailwx.info

Wind from 180 at 18 knots gusting 21

Air temperature 3.3° C
Dewpoint 2.5° C

Last reported at 2015-Mar-05 09:43 UTC.
Time now 2015-Mar-05 10:28 UTC

Location: N 60°01' E 005°12'.
View on Google Maps.

See reports from other nearby stations

  
Tides and Currents Weather Stations Pressure Air Temp Water Temp Dewpoint Dewpoint Depression Visibility Wind Speed Wind Dir Waves Ship Positions
date/time (UTC)wind fromknots sea level pressurealtimeterstation pressurevisibilityair tempwater tempwave heightnotes
2015-Mar-05 09:43 180 18 gusting 21 3.3
2015-Mar-05 09:33 189 19 gusting 21 3.3
2015-Mar-05 09:23 180 15 gusting 19 3.3
2015-Mar-05 09:13 178 12 gusting 19 3.3
2015-Mar-05 09:03 181 10 gusting 18 3.3
2015-Mar-05 08:53 166 10 gusting 19 3.3
2015-Mar-05 08:43 176 11 gusting 19 3.3
2015-Mar-05 08:33 197 10 gusting 20 3.3
2015-Mar-05 08:23 177 13 gusting 19 3.3
2015-Mar-05 08:13 180 12 gusting 17 3.3
2015-Mar-05 08:03 180 13 gusting 14 3.3
2015-Mar-05 07:53 186 8 gusting 11 3.3
2015-Mar-05 07:43 153 8 gusting 13 3.3
2015-Mar-05 07:33 180 12 gusting 13 3.3
2015-Mar-05 07:23 172 10 gusting 11 3.3
2015-Mar-05 07:13 179 8 gusting 11 3.3
2015-Mar-05 07:03 136 6 gusting 11 3.3
2015-Mar-05 06:53 190 10 gusting 13 3.3
2015-Mar-05 06:43 158 3 gusting 10 3.3
2015-Mar-05 06:33 116 6 gusting 11 3.3
2015-Mar-05 06:23 174 5 gusting 10 3.3
2015-Mar-05 06:13 155 7 gusting 11 3.3
2015-Mar-05 06:03 179 5 gusting 7 3.3
2015-Mar-05 05:53 152 6 gusting 13 3.3
2015-Mar-05 05:43 180 7 gusting 12 3.3
2015-Mar-05 05:33 168 5 gusting 10 3.3
2015-Mar-05 05:23 180 8 gusting 11 3.3
2015-Mar-05 05:13 163 8 gusting 13 3.3
2015-Mar-05 05:03 158 7 gusting 13 3.3
2015-Mar-05 04:53 188 8 gusting 13 2.8
2015-Mar-05 04:43 189 7 gusting 12 2.8
2015-Mar-05 04:33 174 10 gusting 19 2.8
2015-Mar-05 04:23 225 11 gusting 14 2.8
2015-Mar-05 04:13 180 10 gusting 13 2.8
2015-Mar-05 04:03 202 6 gusting 11 2.8
2015-Mar-05 03:53 171 6 gusting 8 2.8
2015-Mar-05 03:43 192 8 gusting 8 2.8
2015-Mar-05 03:33 168 4 gusting 6 2.8
2015-Mar-05 03:23 158 4 gusting 5 2.8
2015-Mar-05 03:13 133 2 gusting 10 2.8
2015-Mar-05 03:03 202 9 gusting 10 2.8
2015-Mar-05 02:53 191 6 gusting 10 2.8
2015-Mar-05 02:43 172 6 gusting 7 2.8
2015-Mar-05 02:33 180 6 gusting 8 2.8
2015-Mar-05 02:23 196 7 gusting 10 2.2
2015-Mar-05 02:13 202 9 gusting 10 2.2
2015-Mar-05 02:03 159 4 gusting 6 2.8
2015-Mar-05 01:53 180 2 gusting 4 2.2
2015-Mar-05 01:43 152 2 gusting 2 2.8
2015-Mar-05 01:33 135 1 gusting 1 2.8
2015-Mar-05 01:23 112 2 gusting 2 2.8
2015-Mar-05 01:13 095 0 gusting 1 2.2
2015-Mar-05 01:03 113 0 gusting 1 2.2
2015-Mar-05 00:53 202 0 gusting 0 2.2
2015-Mar-05 00:43 283 2.2
2015-Mar-05 00:33 244 0 gusting 1 2.8
2015-Mar-05 00:23 282 1 gusting 7 2.8
2015-Mar-05 00:13 248 4 gusting 10 2.8
2015-Mar-05 00:03 248 4 gusting 12 2.8
2015-Mar-04 23:53 245 2 gusting 4 2.2
2015-Mar-04 23:43 270 0 gusting 2 2.2
2015-Mar-04 23:33 255 0 gusting 5 2.2
2015-Mar-04 23:23 253 2 gusting 5 2.8
2015-Mar-04 23:13 251 3 gusting 5 2.8
2015-Mar-04 23:03 270 2 gusting 4 2.8
2015-Mar-04 22:53 269 2 gusting 5 2.8
2015-Mar-04 22:43 238 4 gusting 6 2.8
2015-Mar-04 22:33 228 0 gusting 6 3.3
2015-Mar-04 22:23 306 2 gusting 4 3.3
2015-Mar-04 22:13 229 1 gusting 1 3.3
2015-Mar-04 22:03 229 0 gusting 0 3.3
2015-Mar-04 21:53 336 1 gusting 2 3.3
2015-Mar-04 21:43 258 1 gusting 2 3.3
2015-Mar-04 21:33 258 4 gusting 5 3.3
2015-Mar-04 21:23 068 3.3
2015-Mar-04 21:13 339 3.3
2015-Mar-04 21:03 336 1 gusting 4 3.3
2015-Mar-04 20:53 274 1 gusting 6 3.3
2015-Mar-04 20:43 213 1 gusting 6 3.3
2015-Mar-04 20:33 331 1 gusting 4 3.3
2015-Mar-04 20:23 310 1 gusting 2 3.3
2015-Mar-04 20:13 250 1 gusting 4 3.3
2015-Mar-04 20:03 293 1 gusting 1 3.3
2015-Mar-04 19:53 309 1 gusting 1 2.8
2015-Mar-04 19:43 292 1 gusting 2 2.8
2015-Mar-04 19:33 317 0 gusting 2 2.8
2015-Mar-04 19:23 293 1 gusting 2 2.8
2015-Mar-04 19:13 251 2.2
2015-Mar-04 19:03 358 2.2
2015-Mar-04 18:53 013 1 gusting 1 2.2
2015-Mar-04 18:43 258 2.2
2015-Mar-04 18:33 286 2.2
2015-Mar-04 18:23 284 2.8
2015-Mar-04 18:13 202 0 gusting 2 2.8
2015-Mar-04 18:03 159 1 gusting 2 2.8
2015-Mar-04 17:53 180 2.8
2015-Mar-04 17:43 180 2.8
2015-Mar-04 17:33 209 2.8
2015-Mar-04 17:23 265 0 gusting 0 3.3
2015-Mar-04 17:13 225 3.3
2015-Mar-04 17:03 222 2 gusting 6 3.3
2015-Mar-04 16:53 112 3.3
2015-Mar-04 16:43 090 3.9
2015-Mar-04 16:33 061 3.9
2015-Mar-04 16:23 349 4.4
2015-Mar-04 16:13 219 2 gusting 7 3.9
2015-Mar-04 16:03 204 1 gusting 2 3.9
2015-Mar-04 15:53 249 3.9
2015-Mar-04 15:43 279 0 gusting 4 3.9
2015-Mar-04 15:33 228 2 gusting 6 3.9
2015-Mar-04 15:23 259 5 gusting 11 3.9
2015-Mar-04 15:13 251 0 gusting 5 3.9
2015-Mar-04 15:03 317 0 gusting 6 3.9
2015-Mar-04 14:53 248 3 gusting 6 3.9
2015-Mar-04 14:43 241 2 gusting 4 3.9
2015-Mar-04 14:33 261 0 gusting 0 4.4
2015-Mar-04 14:23 302 4.4
2015-Mar-04 14:13 333 0 gusting 1 4.4
2015-Mar-04 14:03 270 2 gusting 6 4.4
2015-Mar-04 13:53 263 6 gusting 6 5.6
2015-Mar-04 13:43 240 3 gusting 6 5.6
2015-Mar-04 13:33 236 6 gusting 7 5.6
2015-Mar-04 13:23 242 4 gusting 10 5.6
2015-Mar-04 13:13 225 4 gusting 5 5.6
2015-Mar-04 13:03 291 1 gusting 2 5.0
2015-Mar-04 12:53 306 2 gusting 4 5.0
2015-Mar-04 12:43 248 1 gusting 4 5.0
2015-Mar-04 12:33 268 3 gusting 5 5.0
2015-Mar-04 12:23 358 0 gusting 2 5.0
2015-Mar-04 12:13 218 3 gusting 4 4.4
2015-Mar-04 12:03 249 1 gusting 5 4.4
2015-Mar-04 11:53 043 0 gusting 2 4.4
2015-Mar-04 11:43 183 0 gusting 1 4.4
2015-Mar-04 11:33 166 4.4
2015-Mar-04 11:23 077 0 gusting 1 4.4
2015-Mar-04 11:13 4.4
2015-Mar-04 11:03 349 4.4
2015-Mar-04 10:53 355 0 gusting 2 4.4
2015-Mar-04 10:43 249 0 gusting 4 4.4
2015-Mar-04 10:33 253 2 gusting 4 4.4
2015-Mar-04 10:23 195 0 gusting 0 3.9
2015-Mar-04 10:13 202 0 gusting 0 3.9
2015-Mar-04 10:03 197 0 gusting 0 3.3
2015-Mar-04 09:53 148 0 gusting 2 3.3
2015-Mar-04 09:43 197 1 gusting 4 2.8
2015-Mar-04 09:33 180 3 gusting 4 2.8
2015-Mar-04 09:23 190 1 gusting 4 2.8
2015-Mar-04 09:13 177 3 gusting 4 2.2
2015-Mar-04 09:03 158 2 gusting 2 2.2
2015-Mar-04 08:53 158 1 gusting 4 2.2
2015-Mar-04 08:43 162 1 gusting 5 1.7
2015-Mar-04 08:33 145 2 gusting 4 1.1
2015-Mar-04 08:23 141 1 gusting 2 1.1
2015-Mar-04 08:13 170 1 gusting 2 0.6
2015-Mar-04 08:03 135 1 gusting 1 0.6
2015-Mar-04 07:53 144 0.6
2015-Mar-04 07:43 135 1 gusting 1 -0.0
2015-Mar-04 07:33 129 1 gusting 4 -0.0
2015-Mar-04 07:23 135 2 gusting 4 -0.0
2015-Mar-04 07:13 113 1 gusting 2 -0.0
2015-Mar-04 07:03 113 1 gusting 1 -0.6
2015-Mar-04 06:53 135 0 gusting 0 -0.6
2015-Mar-04 06:43 134 -0.6
2015-Mar-04 06:33 158 2 gusting 2 -0.6
2015-Mar-04 06:23 161 0 gusting 1 -0.6
2015-Mar-04 06:13 180 -0.0
2015-Mar-04 06:03 202 -0.0
2015-Mar-04 05:53 140 1 gusting 4 -0.0
2015-Mar-04 05:43 146 2 gusting 5 0.6
2015-Mar-04 05:33 185 2 gusting 5 0.6
2015-Mar-04 05:23 135 4 gusting 5 0.6
2015-Mar-04 05:13 171 2 gusting 6 0.6
2015-Mar-04 05:03 135 4 gusting 6 0.6
2015-Mar-04 04:53 135 3 gusting 6 0.6
2015-Mar-04 04:43 102 3 gusting 6 0.6
2015-Mar-04 04:33 172 5 gusting 6 0.6
2015-Mar-04 04:23 112 4 gusting 7 0.6
2015-Mar-04 04:13 135 4 gusting 6 1.1
2015-Mar-04 04:03 111 3 gusting 7 1.1
2015-Mar-04 03:53 147 4 gusting 7 1.1
2015-Mar-04 03:43 112 5 gusting 6 1.1
2015-Mar-04 03:33 084 5 gusting 6 1.1
2015-Mar-04 03:23 112 3 gusting 6 1.1
2015-Mar-04 03:13 109 5 gusting 6 1.1
2015-Mar-04 03:03 109 5 gusting 6 1.1
2015-Mar-04 02:53 126 4 gusting 7 1.1
2015-Mar-04 02:43 112 6 gusting 7 1.1
2015-Mar-04 02:33 135 6 gusting 6 1.7
2015-Mar-04 02:23 112 6 gusting 7 1.7
2015-Mar-04 02:13 068 6 gusting 6 1.7
2015-Mar-04 02:03 092 4 gusting 8 1.7
2015-Mar-04 01:53 112 6 gusting 6 1.7
2015-Mar-04 01:43 136 4 gusting 5 1.1
2015-Mar-04 01:33 124 2 gusting 5 1.1
2015-Mar-04 01:23 141 4 gusting 6 1.1
2015-Mar-04 01:13 143 5 gusting 6 1.7
2015-Mar-04 01:03 135 2 gusting 8 1.7
2015-Mar-04 00:53 177 4 gusting 6 1.7
2015-Mar-04 00:43 135 5 gusting 6 1.7
2015-Mar-04 00:33 130 3 gusting 6 2.2
2015-Mar-04 00:23 135 4 gusting 6 1.7
2015-Mar-04 00:13 112 4 gusting 6 1.7
2015-Mar-04 00:03 135 5 gusting 7 1.7
2015-Mar-03 23:53 135 2 gusting 6 1.7
2015-Mar-03 23:43 180 5 gusting 7 1.7
2015-Mar-03 23:33 172 4 gusting 6 1.7
2015-Mar-03 23:23 158 4 gusting 8 1.7
2015-Mar-03 23:13 215 6 gusting 7 1.7
2015-Mar-03 23:03 196 8 gusting 11 1.7
2015-Mar-03 22:53 158 6 gusting 8 1.7
2015-Mar-03 22:43 163 7 gusting 10 1.1
2015-Mar-03 22:33 145 6 gusting 7 1.1
2015-Mar-03 22:23 193 7 gusting 8 1.7
2015-Mar-03 22:13 164 3 gusting 6 1.7
2015-Mar-03 22:03 180 6 gusting 6 1.7
2015-Mar-03 21:53 170 6 gusting 7 1.1
2015-Mar-03 21:43 189 7 gusting 8 1.1
2015-Mar-03 21:33 158 6 gusting 8 1.1
2015-Mar-03 21:23 169 8 gusting 13 1.7
2015-Mar-03 21:13 198 8 gusting 10 1.7
2015-Mar-03 21:03 180 7 gusting 10 1.7
2015-Mar-03 20:53 135 6 gusting 8 1.7
2015-Mar-03 20:43 180 5 gusting 7 1.7
2015-Mar-03 20:33 146 5 gusting 10 1.7
2015-Mar-03 20:23 175 7 gusting 10 1.7
2015-Mar-03 20:13 199 10 gusting 12 1.7
2015-Mar-03 20:03 156 6 gusting 8 1.7
2015-Mar-03 19:53 178 2 gusting 8 1.7
2015-Mar-03 19:43 158 6 gusting 8 1.7
2015-Mar-03 19:33 170 6 gusting 7 1.7
2015-Mar-03 19:23 180 6 gusting 10 1.7
2015-Mar-03 19:13 158 6 gusting 10 1.7
2015-Mar-03 19:03 159 7 gusting 12 1.7
2015-Mar-03 18:53 142 6 gusting 13 1.7
2015-Mar-03 18:43 176 7 gusting 13 1.7
2015-Mar-03 18:33 192 11 gusting 13 1.7
2015-Mar-03 18:23 158 6 gusting 11 1.1
2015-Mar-03 18:13 182 6 gusting 10 1.1
2015-Mar-03 18:03 155 4 gusting 7 1.7
2015-Mar-03 17:53 135 5 gusting 7 1.7
2015-Mar-03 17:43 180 6 gusting 7 1.7
2015-Mar-03 17:33 141 6 gusting 10 1.7
2015-Mar-03 17:23 180 7 gusting 11 1.7
2015-Mar-03 17:13 179 7 gusting 11 2.2
2015-Mar-03 17:03 179 7 gusting 11 2.2
2015-Mar-03 16:53 170 7 gusting 11 2.2
2015-Mar-03 16:43 192 8 gusting 12 2.2
2015-Mar-03 16:33 167 6 gusting 7 2.2
2015-Mar-03 16:23 185 7 gusting 7 2.8
2015-Mar-03 16:13 180 5 gusting 6 2.8
2015-Mar-03 16:03 157 5 gusting 7 2.8
2015-Mar-03 15:53 187 6 gusting 12 3.3
2015-Mar-03 15:43 189 7 gusting 8 3.3
2015-Mar-03 15:33 178 0 gusting 1 3.3
2015-Mar-03 15:23 248 3.3
2015-Mar-03 15:13 225 3.3
2015-Mar-03 15:03 3.3
2015-Mar-03 14:53 270 3.3
2015-Mar-03 14:43 270 0 gusting 1 3.3
2015-Mar-03 14:33 314 2 gusting 5 3.3
2015-Mar-03 14:23 317 1 gusting 7 3.9
2015-Mar-03 14:13 232 8 gusting 13 3.9
2015-Mar-03 14:03 223 4 gusting 7 3.9
2015-Mar-03 13:53 210 5 gusting 8 3.3
2015-Mar-03 13:43 192 9 gusting 13 2.8
2015-Mar-03 13:33 202 11 gusting 13 2.8
2015-Mar-03 13:23 174 6 gusting 13 2.8
2015-Mar-03 13:13 206 12 gusting 15 3.3
2015-Mar-03 13:03 158 7 gusting 8 3.3
2015-Mar-03 12:53 176 5 gusting 13 3.3
2015-Mar-03 12:43 172 6 gusting 12 3.3
2015-Mar-03 12:33 153 6 gusting 12 3.3
2015-Mar-03 12:23 165 10 gusting 13 3.3
2015-Mar-03 12:13 155 8 gusting 12 3.3
2015-Mar-03 12:03 135 6 gusting 14 3.3
2015-Mar-03 11:53 195 11 gusting 14 3.3
2015-Mar-03 11:43 180 11 gusting 15 3.3
2015-Mar-03 11:33 121 6 gusting 13 3.3
2015-Mar-03 11:23 180 10 gusting 17 3.3
2015-Mar-03 11:13 180 13 gusting 15 3.3
2015-Mar-03 11:03 180 9 gusting 18 2.8
2015-Mar-03 10:53 153 8 gusting 13 2.8
2015-Mar-03 10:43 175 11 gusting 14 2.8
2015-Mar-03 10:33 158 11 gusting 17 2.8
2015-Mar-03 10:23 196 12 gusting 14 2.2
2015-Mar-03 10:13 176 11 gusting 15 2.2
2015-Mar-03 10:03 180 10 gusting 17 2.2